EW6287 Weather Reports


time (UTC)temp
F
wind
direction
speed
knots
gust
knots
rain 1hr
in
rain 24hr
in
rain mn
in
humidity
%
barometer
mb
20260905024529 67 0.0 0.0 0.00 0.05 0.05 92 1014.6
20260905023032 66 0.0 0.0 0.00 0.05 0.05 92 1014.5
20260905021529 66 0.0 0.0 0.00 0.05 0.05 92 1014.4
20260905020006 66 0.0 0.0 0.00 0.05 0.05 92 1014.3
20260905014503 66 0.0 0.0 0.00 0.05 0.05 92 1013.9
20260905013030 66 0.0 0.0 0.00 0.05 0.05 93 1013.4
20260905011603 66 0.0 0.0 0.00 0.05 0.05 92 1013.9
20260905010106 67 0.0 0.0 0.00 0.05 0.05 92 1013.7
20260905004558 67 0.0 0.0 0.00 0.05 0.05 91 1013.7
20260905001605 68 0.0 0.0 0.00 0.05 0.05 89 1013.6
20260905000111 68 0.0 0.0 0.00 0.05 0.05 89 1013.4
20260904234557 69 0.0 0.0 0.00 0.05 0.05 88 1013.4
20260904231604 69 0.0 0.0 0.00 0.05 0.05 88 1013.3
20260904230054 69 0.0 0.0 0.00 0.05 0.05 87 1012.9
20260904224558 70 0.0 0.0 0.00 0.05 0.05 86 1013.3
20260904221530 70 0.0 0.0 0.00 0.05 0.05 85 1013.1
20260904220030 70 0.0 0.0 0.00 0.05 0.05 85 1012.8
20260904214546 69 0.0 0.0 0.00 0.05 0.05 85 1013.1
20260904213033 69 0.0 0.0 0.00 0.05 0.05 86 1013.0
20260904211536 69 0.0 0.0 0.00 0.05 0.05 87 1013.0
20260904210043 69 0.0 0.0 0.00 0.05 0.05 86 1013.1
20260904204512 69 0.0 0.0 0.00 0.05 0.05 86 1013.0
20260904203012 69 0.0 0.0 0.00 0.05 0.05 87 1012.9
20260904201505 69 0.0 0.0 0.00 0.05 0.05 87 1012.5
20260904200004 68 0.0 0.0 0.00 0.05 0.05 88 1012.8
20260904194501 68 0.0 0.0 0.00 0.05 0.05 88 1013.0
20260904193123 67 0.0 0.0 0.00 0.05 0.05 88 1013.1
20260904191558 67 0.0 0.0 0.00 0.05 0.05 89 1012.9
20260904190058 66 0.0 0.0 0.01 0.05 0.05 91 1013.2
20260904184556 67 0.0 0.0 0.01 0.05 0.05 91 1013.1
20260904183056 66 0.0 0.0 0.01 0.05 0.05 92 1012.9
20260904181535 66 0.0 0.0 0.01 0.05 0.05 93 1013.1
20260904180032 66 0.0 0.0 0.00 0.04 0.04 93 1012.8
20260904174533 67 0.0 0.0 0.00 0.04 0.04 93 1012.2
20260904173047 66 0.0 0.0 0.00 0.04 0.04 94 1012.0
20260904171531 66 0.0 0.0 0.00 0.04 0.04 95 1012.5
20260904170030 66 0.0 0.0 0.00 0.04 0.04 96 1012.5
20260904164507 65 0.0 0.0 0.00 0.04 0.04 97 1012.1
20260904163006 65 0.0 0.0 0.00 0.04 0.04 97 1012.3
20260904161515 65 0.0 0.0 0.00 0.04 0.04 97 1012.3
20260904160014 64 0.0 0.0 0.00 0.04 0.04 97 1012.2
20260904154512 64 0.0 0.0 0.00 0.04 0.04 97 1011.9
20260904153013 64 0.0 0.0 0.00 0.04 0.04 98 1012.0
20260904151511 64 0.0 0.0 0.00 0.04 0.04 98 1011.7
20260904150011 63 0.0 0.0 0.00 0.04 0.04 97 1011.4
20260904144508 63 0.0 0.0 0.00 0.04 0.04 97 1011.4
20260904143007 63 0.0 0.0 0.00 0.04 0.04 97 1011.3
20260904141506 63 0.0 0.0 0.00 0.04 0.04 97 1011.0
20260904140005 64 0.0 0.0 0.00 0.04 0.04 98 1010.8
20260904134504 64 0.0 0.0 0.00 0.04 0.04 98 1010.9
20260904133004 64 0.0 0.0 0.01 0.04 0.04 98 1010.8
20260904131545 63 0.0 0.0 0.01 0.04 0.04 98 1010.5
20260904130040 63 0.0 0.0 0.01 0.04 0.04 98 1010.5
20260904124535 63 0.0 0.0 0.01 0.04 0.04 98 1010.3
20260904123034 63 0.0 0.0 0.00 0.03 0.03 98 1010.2
20260904120048 63 0.0 0.0 0.00 0.03 0.03 97 1010.0
20260904114550 64 0.0 0.0 0.00 0.03 0.03 98 1009.8
20260904113047 64 0.0 0.0 0.00 0.03 0.03 98 1009.3
20260904110045 63 0.0 0.0 0.00 0.03 0.03 97 1009.0
20260904104544 63 0.0 0.0 0.00 0.03 0.03 97 1008.9
20260904103043 63 0.0 0.0 0.00 0.03 0.03 97 1008.5
20260904100042 63 0.0 0.0 0.01 0.03 0.03 97 1008.4
20260904094540 63 0.0 0.0 0.01 0.03 0.03 97 1008.3
20260904093040 63 0.0 0.0 0.01 0.03 0.03 97 1008.8
20260904090041 64 0.0 0.0 0.00 0.02 0.02 97 1008.5
20260904084540 63 0.0 0.0 0.00 0.02 0.02 97 1008.4
20260904083041 64 0.0 0.0 0.00 0.02 0.02 97 1008.5
20260904080039 63 0.0 0.0 0.01 0.02 0.02 97 1007.9
20260904074555 63 0.0 0.0 0.01 0.02 0.02 97 1008.1
20260904073038 63 0.0 0.0 0.01 0.02 0.02 97 1008.0
20260904070037 63 0.0 0.0 0.00 0.01 0.01 97 1007.8
20260904064538 63 0.0 0.0 0.00 0.01 0.01 97 1008.4
20260904063046 63 0.0 0.0 0.00 0.01 0.01 96 1008.4
20260904060034 64 0.0 0.0 0.01 0.01 0.01 96 1008.4
20260904054537 64 0.0 0.0 0.01 0.01 0.01 96 1008.3
20260904053037 64 0.0 0.0 0.01 0.01 0.01 96 1008.3
20260904050005 64 0.0 0.0 0.00 0.00 0.00 94 1008.9
20260904044505 66 0.0 0.0 0.00 0.00 0.00 92 1010.4
20260904043101 66 0.0 0.0 0.00 0.00 0.00 89 1008.1
20260904041556 67 0.0 0.0 0.00 0.00 0.00 87 1008.0
20260904040056 67 0.0 0.0 0.00 0.00 0.00 89 1009.3
20260904034556 66 0.0 0.0 0.00 0.00 0.00 89 1006.9
20260904033101 66 0.0 0.0 0.00 0.00 0.00 89 1006.8
20260904031605 66 0.0 0.0 0.00 0.00 0.00 89 1007.5